Weather Roundup
Issued by NWS Chicago, IL

Home | Current Version | Previous Version | Text Only | Print | Product List | Glossary Off
Versions: 1 2 3 4 5 6 7 8 9 10 11 12 13 14 15 16 17 18 19 20 21 22 23 24 25 26 27 28 29 30 31 32 33 34 35 36 37 38 39 40 41 42 43 44 45 46 47 48 49 50

000
NZUS59 KLOT 120906
HRRLOT

CHICAGO AREA WEATHER ROUNDUP
NATIONAL WEATHER SERVICE CHICAGO/ROMEOVILLE IL
400 AM CDT SAT JUL 12 2014

NOTE: "FAIR" INDICATES FEW OR NO CLOUDS BELOW 12,000 FEET WITH NO
SIGNIFICANT WEATHER AND/OR OBSTRUCTIONS TO VISIBILITY.

* THESE STATIONS ARE NOT UNDER NWS QUALITY CONTROL. THEY ALSO MAY NOT
  REPORT WEATHER SUCH AS PRECIPITATION OR FOG.

ILZ005-006-012>014-019>023-121000-
NORTHEAST ILLINOIS

CITY           SKY/WX    TMP DP  RH WIND       PRES   REMARKS
OHARE          MOCLDY    72  58  61 S7        30.05F
MIDWAY         MOCLDY    76  60  57 S8        30.06F
AURORA         CLOUDY    71  61  70 SE6       30.05F
LANSING*       CLOUDY    72  59  64 S8        30.08F
JOLIET*        MOCLDY    71  60  67 SE5       30.06F
WAUKEGAN       MOCLDY    71  58  63 S7        30.05F
DUPAGE AIRPORT MOCLDY    72  61  68 SE7       30.05F
WHEELING       CLOUDY    74  60  61 S9        30.06F
KANKAKEE*      PTCLDY    71  63  74 SE7       30.07F
MORRIS*        MOCLDY    73  64  72 SE7       30.04F
LEWIS AIRPORT* MOCLDY    71  60  70 S8        30.06F
NORTHERLY IS     N/A     74  59  59 S5          N/A
$$

WIZ051-052-058>065-066-070>072-121000-
SOUTHEAST WISCONSIN

CITY           SKY/WX    TMP DP  RH WIND       PRES   REMARKS
MILWAUKEE      CLOUDY    71  59  65 S7        30.04F
KENOSHA*       MOCLDY    70  61  73 S6        30.05F
RACINE*        CLOUDY    70  60  70 S6        30.06F
BURLINGTON     MOCLDY    67  60  77 CALM      30.04F
WAUKESHA       CLOUDY    66  57  72 S6        30.05F
WEST BEND      PTCLDY    64  55  72 CALM      30.04F
$$

INZ001>003-010>013-019-020-121000-
NORTHWEST INDIANA

CITY           SKY/WX    TMP DP  RH WIND       PRES   REMARKS
GARY*          CLOUDY    73  62  68 SE5       30.08F
MICHIGAN CITY* NOT AVBL
RENSSELAER*    NOT AVBL
VALPARAISO     CLOUDY    69  61  75 SE6       30.10F
$$

LMZ740>746-121000-
SOUTHERN LAKE MICHIGAN

STATION/POSITION TIME  SKY/WX   TEMP WIND        PRES    VSBY
                                AIR  DIR/SP/G
                 (UTC)          (F)  (DEG/KT/KT) (MB)    (MI)
HARRISON CRIB    0900            74  180/ 16/ 16   N/A
BURNHAM HARBOR   0900            74  180/  4/  8   N/A
CALUMET HARBOR   0900            74  170/  7/  9 1018.9F
BURNS HARBOR     NOT AVBL
MICHIGAN CITY    0900            73  140/ 11/ 14   N/A
$$

ABBREVIATIONS USED IN REMARKS
   TC - TEMPERATURE IN CELSIUS
  WCI - WIND CHILL INDEX
   HX - HEAT INDEX
  VSB - VISIBILITY
$$



USA.gov is the U.S. government's official web portal to all federal, state and local government web resources and services.